KC8YVF-1 Weather Reports


Display with metric or nautical units.
time (UTC)temp
F
wind
direction
speed
MPH
gust
MPH
rain 1hr
in
rain 24hr
in
rain mn
in
humidity
%
barometer
mb
20171023190246 60 90 0.0 0.0 0.06 0.26 0.28 96 990.5
20171023190131 60 90 0.0 0.0 0.04 0.26 0.26 96 990.5
20171023185628 60 90 0.0 0.0 0.04 0.26 0.26 96 990.5
20171023185131 60 90 0.0 0.0 0.04 0.26 0.26 96 990.5
20171023184745 60 68 0.0 0.0 0.04 0.26 0.26 96 990.8
20171023184628 60 68 0.0 0.0 0.06 0.26 0.26 96 990.8
20171023184130 60 68 0.0 0.0 0.06 0.26 0.26 96 990.8
20171023183630 60 68 0.0 0.0 0.06 0.26 0.26 91 990.8
20171023183247 60 68 0.0 0.0 0.06 0.26 0.26 89 990.8
20171023183130 60 68 0.0 0.0 0.06 0.24 0.26 89 990.8
20171023182629 60 68 0.0 0.0 0.04 0.24 0.24 89 990.9
20171023182129 60 68 0.0 0.0 0.04 0.24 0.24 89 991.1
20171023181746 60 68 0.0 0.0 0.04 0.22 0.24 94 991.1
20171023181629 60 68 0.0 0.0 0.02 0.22 0.22 90 991.1
20171023181130 60 68 0.0 0.0 0.04 0.22 0.22 89 991.2
20171023180630 60 68 0.0 0.0 0.04 0.22 0.22 89 991.5
20171023180247 60 68 0.0 0.0 0.04 0.22 0.22 89 991.5
20171023180130 60 68 0.0 0.0 0.04 0.22 0.22 89 991.5
20171023175629 60 90 0.0 0.0 0.06 0.22 0.22 89 991.8
20171023175129 60 90 0.0 0.0 0.06 0.22 0.22 89 992.2
20171023174742 60 90 0.0 0.0 0.08 0.20 0.22 89 992.2
20171023174629 60 90 0.0 0.0 0.06 0.20 0.20 89 992.2
20171023174129 60 90 0.0 0.0 0.06 0.20 0.20 89 992.4
20171023173630 60 23 0.0 0.0 0.06 0.20 0.20 89 992.5
20171023173241 60 23 0.0 0.0 0.06 0.20 0.20 88 992.5
20171023173129 60 23 0.0 0.0 0.06 0.20 0.20 88 992.5
20171023172629 60 23 0.0 0.0 0.08 0.20 0.20 88 992.7
20171023172130 60 23 0.0 0.0 0.08 0.20 0.20 88 992.8
20171023171743 60 23 0.0 0.0 0.08 0.20 0.20 88 992.8
20171023171630 60 23 0.0 0.0 0.08 0.18 0.20 88 992.9
20171023171129 60 23 0.0 0.0 0.06 0.18 0.18 88 993.2
20171023170629 60 23 0.0 0.0 0.06 0.18 0.18 88 993.2
20171023170429 60 23 0.0 0.0 0.06 0.18 0.18 88 993.2
20171023170129 60 23 0.0 0.0 0.06 0.18 0.18 88 993.3
20171023165633 60 23 0.0 0.0 0.04 0.16 0.16 88 993.5
20171023165129 60 23 0.0 0.0 0.04 0.14 0.16 88 993.5
20171023164928 60 23 0.0 0.0 0.04 0.14 0.14 87 993.5
20171023164629 60 23 0.0 0.0 0.04 0.14 0.14 87 993.5
20171023164129 60 23 0.0 0.0 0.04 0.14 0.14 87 993.5
20171023163628 60 23 0.0 0.0 0.04 0.14 0.14 87 993.9
20171023163428 60 23 0.0 0.0 0.04 0.14 0.14 87 993.9
20171023163128 60 23 0.0 0.0 0.04 0.12 0.14 87 993.9
20171023162630 60 23 0.0 0.0 0.04 0.12 0.12 87 994.1
20171023162130 60 23 0.0 0.0 0.04 0.12 0.12 87 994.2
20171023161929 60 23 0.0 0.0 0.06 0.12 0.12 87 994.2
20171023161630 60 23 0.0 0.0 0.06 0.12 0.12 87 994.2
20171023161129 60 23 0.0 0.0 0.12 0.12 0.12 87 994.2
20171023160629 60 23 0.0 0.0 0.12 0.12 0.12 87 994.5
20171023160428 60 23 0.0 0.0 0.12 0.12 0.12 87 994.6
20171023160129 60 23 0.0 0.0 0.12 0.12 0.12 87 994.6
20171023155629 60 23 0.0 0.0 0.12 0.12 0.12 87 994.9
20171023155129 60 23 0.0 0.0 0.12 0.12 0.12 87 994.9
20171023154928 60 23 0.0 0.0 0.10 0.10 0.10 87 994.9
20171023154131 60 23 0.0 0.0 0.10 0.10 0.10 87 995.2
20171023153631 60 23 0.0 0.0 0.10 0.10 0.10 87 995.4
20171023153428 60 23 0.0 0.0 0.10 0.10 0.10 87 995.5
20171023153129 60 23 0.0 0.0 0.10 0.10 0.10 87 995.5
20171023152629 60 23 0.0 0.0 0.08 0.08 0.08 87 995.5
20171023151928 60 23 0.0 0.0 0.06 0.06 0.06 87 995.4
20171023151642 60 23 0.0 0.0 0.06 0.04 0.06 87 995.4
20171023151132 60 23 0.0 0.0 0.00 0.00 0.00 87 995.4
20171023145629 60 23 0.0 0.0 0.00 0.00 0.00 87 995.2
20171023145114 60 45 0.0 0.0 0.00 0.00 0.00 87 995.2
20171023144630 60 45 0.0 0.0 0.00 0.00 0.00 87 995.5
20171023144129 60 45 0.0 0.0 0.00 0.00 0.00 87 995.5
20171023143614 60 45 0.0 0.0 0.00 0.00 0.00 87 995.5
20171023143129 60 45 0.0 0.0 0.00 0.00 0.00 87 995.6
20171023142629 60 0 0.0 0.0 0.00 0.00 0.00 86 995.9
20171023142114 60 338 0.0 0.0 0.00 0.00 0.00 86 995.9
20171023141129 60 0 0.0 0.0 0.00 0.00 0.00 86 996.2
20171023140614 60 0 0.0 0.0 0.00 0.00 0.00 86 996.2
20171023140129 60 45 0.0 0.0 0.00 0.00 0.00 86 996.2
20171023135628 60 45 0.0 0.0 0.00 0.00 0.00 86 996.2
20171023135113 60 45 0.0 0.0 0.00 0.00 0.00 86 996.2
20171023134629 60 45 0.0 0.0 0.00 0.00 0.00 86 996.6
20171023134130 60 45 0.0 0.0 0.00 0.00 0.00 86 996.6
20171023133615 60 45 0.0 0.0 0.00 0.00 0.00 86 996.6
20171023133130 60 90 0.0 0.0 0.00 0.00 0.00 85 996.6
20171023132629 60 45 0.0 0.0 0.00 0.00 0.00 85 996.6
20171023132114 60 45 0.0 0.0 0.00 0.00 0.00 85 996.9
20171023131629 60 45 0.0 0.0 0.00 0.00 0.00 85 996.9
20171023131129 60 45 0.0 0.0 0.00 0.00 0.00 84 996.9
20171023130613 60 90 0.0 0.0 0.00 0.00 0.00 84 997.2
20171023130129 60 90 0.0 0.0 0.00 0.00 0.00 84 997.2
20171023125630 60 90 0.0 0.0 0.00 0.00 0.00 84 997.3
20171023125115 60 90 0.0 0.0 0.00 0.00 0.00 84 997.2
20171023124630 60 90 0.0 0.0 0.00 0.00 0.00 84 997.2
20171023124130 60 90 0.0 0.0 0.00 0.00 0.00 84 997.2
20171023123614 60 90 0.0 0.0 0.00 0.00 0.00 84 997.2
20171023123132 60 90 0.0 0.0 0.00 0.00 0.00 84 997.2
20171023122629 60 90 0.0 0.0 0.00 0.00 0.00 84 997.5
20171023122115 60 90 0.0 0.0 0.00 0.00 0.00 84 997.2
20171023121630 60 0 0.0 0.0 0.00 0.00 0.00 84 997.2
20171023120614 60 0 0.0 0.0 0.00 0.00 0.00 84 997.6
20171023120128 60 0 0.0 0.0 0.00 0.00 0.00 84 997.6
20171023115630 60 0 0.0 0.0 0.00 0.00 0.00 84 997.6
20171023115114 60 0 0.0 0.0 0.00 0.00 0.00 84 997.6
20171023114629 60 0 0.0 0.0 0.00 0.00 0.00 84 997.6
20171023114129 60 0 0.0 0.0 0.00 0.00 0.00 83 997.9
20171023113614 60 0 0.0 0.0 0.00 0.00 0.00 83 997.8
20171023113128 60 0 0.0 0.0 0.00 0.00 0.00 83 997.9
20171023112629 60 0 0.0 0.0 0.00 0.00 0.00 83 997.8
20171023112115 60 0 0.0 0.0 0.00 0.00 0.00 83 997.9
20171023111629 60 0 0.0 0.0 0.00 0.00 0.00 83 997.9
20171023111128 60 0 0.0 0.0 0.00 0.00 0.00 83 997.9
20171023110613 60 0 0.0 0.0 0.00 0.00 0.00 83 997.9
20171023110129 60 338 0.0 0.0 0.00 0.00 0.00 82 997.9
20171023105630 60 338 0.0 0.0 0.00 0.00 0.00 82 997.8
20171023105115 60 338 0.0 0.0 0.00 0.00 0.00 82 997.9
20171023104129 60 0 0.0 0.0 0.00 0.00 0.00 82 997.7
20171023103614 61 338 0.0 0.0 0.00 0.00 0.00 82 997.9
20171023103129 61 338 0.0 0.0 0.00 0.00 0.00 81 998.3
20171023102629 61 338 0.0 0.0 0.00 0.00 0.00 81 998.2
20171023102114 61 0 0.0 0.0 0.00 0.00 0.00 81 998.3
20171023101629 62 0 0.0 0.0 0.00 0.00 0.00 81 998.4
20171023101128 62 0 0.0 0.0 0.00 0.00 0.00 81 998.3
20171023100613 62 0 0.0 0.0 0.00 0.00 0.00 81 998.3
20171023100128 62 0 0.0 0.0 0.00 0.00 0.00 80 998.3
20171023095114 63 338 0.0 0.0 0.00 0.00 0.00 80 998.3
20171023094629 63 338 0.0 0.0 0.00 0.00 0.00 80 998.6
20171023094129 64 338 0.0 0.0 0.00 0.00 0.00 80 998.3
20171023093614 64 315 0.0 0.0 0.00 0.00 0.00 80 998.6
20171023093129 64 293 0.0 0.0 0.00 0.00 0.00 79 998.6
20171023092630 64 293 0.0 0.0 0.00 0.00 0.00 79 998.8
20171023092115 64 293 0.0 0.0 0.00 0.00 0.00 79 998.9
20171023091630 64 293 0.0 0.0 0.00 0.00 0.00 79 998.9
20171023091129 64 293 0.0 0.0 0.00 0.00 0.00 80 998.9
20171023090614 64 293 0.0 0.0 0.00 0.00 0.00 78 998.8
20171023090129 64 293 0.0 0.0 0.00 0.00 0.00 78 998.7
20171023085115 64 293 0.0 0.0 0.00 0.00 0.00 77 998.9
20171023084630 64 225 0.0 0.0 0.00 0.00 0.00 76 998.6
20171023084129 64 203 0.0 0.0 0.00 0.00 0.00 76 999.0
20171023083614 64 203 0.0 0.0 0.00 0.00 0.00 76 998.9
20171023082629 64 203 0.0 0.0 0.00 0.00 0.00 75 998.9
20171023082113 64 203 0.0 0.0 0.00 0.00 0.00 76 999.3
20171023081629 64 203 0.0 0.0 0.00 0.00 0.00 74 999.2
20171023081128 64 203 0.0 0.0 0.00 0.00 0.00 73 999.3
20171023080614 65 203 0.0 0.0 0.00 0.00 0.00 73 999.2
20171023075628 65 203 0.0 0.0 0.00 0.00 0.00 72 999.3
20171023075114 65 203 0.0 0.0 0.00 0.00 0.00 71 999.3
20171023074628 65 203 0.0 0.0 0.00 0.00 0.00 71 999.3
20171023074129 65 203 0.0 0.0 0.00 0.00 0.00 71 999.3
20171023073614 65 203 0.0 0.0 0.00 0.00 0.00 71 999.3
20171023073129 65 203 0.0 0.0 0.00 0.00 0.00 71 999.3
20171023072629 65 203 0.0 0.0 0.00 0.00 0.00 71 999.3
20171023072114 65 203 0.0 0.0 0.00 0.00 0.00 70 999.3
20171023071629 65 203 0.0 0.0 0.00 0.00 0.00 69 999.3
20171023071128 65 203 0.0 0.0 0.00 0.00 0.00 69 999.3
20171023070614 65 203 0.0 0.0 0.00 0.00 0.00 69 999.4
20171023070129 65 203 0.0 0.0 0.00 0.00 0.00 68 999.6
20171023065627 65 203 0.0 0.0 0.00 0.00 0.00 68 999.6
20171023065112 66 203 0.0 0.0 0.00 0.00 0.00 68 999.6
20171023064627 66 203 0.0 0.0 0.00 0.00 0.00 67 999.6
20171023064129 66 203 0.0 0.0 0.00 0.00 0.00 67 999.6
20171023063614 66 203 0.0 0.0 0.00 0.00 0.00 67 999.6
20171023062627 66 203 0.0 0.0 0.00 0.00 0.00 66 999.6
20171023062112 66 203 0.0 0.0 0.00 0.00 0.00 65 999.6
20171023061630 67 203 0.0 0.0 0.00 0.00 0.00 65 999.6
20171023061129 67 203 0.0 0.0 0.00 0.00 0.00 65 999.6
20171023060613 67 203 0.0 0.0 0.00 0.00 0.00 64 999.6
20171023055627 67 203 0.0 0.0 0.00 0.00 0.00 64 999.6
20171023055112 67 203 0.0 0.0 0.00 0.00 0.00 64 1000.0
20171023054627 67 180 0.0 0.0 0.00 0.00 0.00 64 1000.0
20171023054129 68 203 0.0 0.0 0.00 0.00 0.00 64 1000.0
20171023053614 68 203 0.0 0.0 0.00 0.00 0.00 64 1000.0
20171023053129 68 203 0.0 0.0 0.00 0.00 0.00 64 1000.0
20171023052628 68 203 1.0 0.0 0.00 0.00 0.00 64 1000.0
20171023052113 68 180 0.0 0.0 0.00 0.00 0.00 64 1000.0
20171023051628 68 180 0.0 0.0 0.00 0.00 0.00 64 1000.0
20171023051128 69 180 0.0 0.0 0.00 0.00 0.00 64 1000.0
20171023050613 69 203 0.0 0.0 0.00 0.00 0.00 64 1000.0
20171023045627 69 180 0.0 0.0 0.00 0.00 0.00 63 1000.0
20171023045112 69 203 1.0 0.0 0.00 0.00 0.00 63 1000.0
20171023044627 69 203 0.0 0.0 0.00 0.00 0.00 63 1000.0
20171023044129 69 158 0.0 2.0 0.00 0.00 0.00 63 1000.0
20171023043613 69 180 1.0 2.0 0.00 0.00 0.00 63 1000.0
20171023043129 69 180 0.0 0.0 0.00 0.00 0.00 63 1000.0
20171023042113 69 158 0.0 0.0 0.00 0.00 0.00 63 1000.0
20171023041628 69 180 0.0 0.0 0.00 0.00 0.00 63 1000.0
20171023041128 69 180 0.0 0.0 0.00 0.00 0.00 63 1000.3
20171023040612 69 180 0.0 0.0 0.00 0.00 0.00 63 1000.3
20171023040128 69 180 0.0 0.0 0.00 0.00 0.00 63 1000.3
20171023035627 69 180 0.0 1.0 0.00 0.00 0.00 63 1000.3
20171023035113 70 180 0.0 0.0 0.00 0.00 0.00 63 1000.3
20171023034628 70 225 0.0 0.0 0.00 0.00 0.00 63 1000.3
20171023034127 70 225 0.0 0.0 0.00 0.00 0.00 63 1000.4
20171023033612 70 225 0.0 0.0 0.00 0.00 0.00 62 1000.3
20171023033127 70 203 0.0 0.0 0.00 0.00 0.00 62 1000.5
20171023032629 70 180 1.0 2.0 0.00 0.00 0.00 62 1000.3
20171023032112 70 180 2.0 1.0 0.00 0.00 0.00 62 1000.6
20171023031627 70 203 0.0 0.0 0.00 0.00 0.00 62 1000.6
20171023031127 70 180 0.0 2.0 0.00 0.00 0.00 62 1000.4
20171023030611 71 180 2.0 7.0 0.00 0.00 0.00 62 1000.4
20171023030126 71 180 2.0 3.0 0.00 0.00 0.00 62 1000.3
20171023025628 71 158 0.0 0.0 0.00 0.00 0.00 61 1000.3
20171023025113 71 180 5.0 8.0 0.00 0.00 0.00 62 1000.3
20171023024126 71 180 1.0 3.0 0.00 0.00 0.00 62 1000.6
20171023023612 71 158 1.0 5.0 0.00 0.00 0.00 62 1000.5
20171023023126 71 180 0.0 0.0 0.00 0.00 0.00 62 1000.6
20171023022628 71 158 1.0 0.0 0.00 0.00 0.00 62 1000.6
20171023022113 71 180 2.0 6.0 0.00 0.00 0.00 62 1000.6
20171023021628 71 180 0.0 2.0 0.00 0.00 0.00 62 1000.6
20171023021127 71 135 1.0 1.0 0.00 0.00 0.00 63 1000.6
20171023020612 71 180 1.0 5.0 0.00 0.00 0.00 63 1000.6
20171023020127 71 158 0.0 0.0 0.00 0.00 0.00 63 1000.6
20171023015627 71 180 0.0 0.0 0.00 0.00 0.00 63 1000.6
20171023015112 71 180 1.0 2.0 0.00 0.00 0.00 63 1000.5
20171023014627 71 158 0.0 0.0 0.00 0.00 0.00 63 1000.6
20171023014128 71 180 2.0 6.0 0.00 0.00 0.00 63 1000.6
20171023013612 71 180 1.0 3.0 0.00 0.00 0.00 63 1000.6
20171023013128 71 203 0.0 1.0 0.00 0.00 0.00 63 1000.6
20171023012626 71 180 3.0 7.0 0.00 0.00 0.00 63 1000.6
20171023012111 71 180 0.0 0.0 0.00 0.00 0.00 63 1000.7
20171023011128 71 180 0.0 0.0 0.00 0.00 0.00 63 1000.6
20171023010613 71 180 0.0 5.0 0.00 0.00 0.00 63 1000.7
20171023010128 71 180 0.0 0.0 0.00 0.00 0.00 62 1000.8
20171023005627 71 158 0.0 0.0 0.00 0.00 0.00 62 1000.9
20171023005112 71 180 3.0 6.0 0.00 0.00 0.00 62 1001.0
20171023004627 71 158 0.0 0.0 0.00 0.00 0.00 62 1001.0
20171023004128 71 158 0.0 0.0 0.00 0.00 0.00 62 1001.0
20171023003613 72 180 0.0 0.0 0.00 0.00 0.00 61 1000.9
20171023003128 72 158 0.0 0.0 0.00 0.00 0.00 62 1001.0
20171023002111 72 158 0.0 0.0 0.00 0.00 0.00 61 1001.0
20171023001626 72 180 1.0 5.0 0.00 0.00 0.00 61 1001.0
20171023001127 72 180 0.0 0.0 0.00 0.00 0.00 61 1001.0
20171023000650 73 180 0.0 0.0 0.00 0.00 0.00 61 1001.0
20171023000612 73 180 0.0 0.0 0.00 0.00 0.00 61 1001.0
20171023000126 73 180 0.0 8.0 0.00 0.00 0.00 60 1001.0
20171022235627 73 180 0.0 0.0 0.00 0.00 0.00 60 1001.0
20171022235112 73 158 0.0 7.0 0.00 0.00 0.00 60 1000.8
20171022234626 73 158 0.0 0.0 0.00 0.00 0.00 60 1000.6
20171022234126 73 180 0.0 0.0 0.00 0.00 0.00 60 1000.6
20171022233611 73 158 1.0 12.0 0.00 0.00 0.00 60 1000.6
20171022233132 73 203 1.0 2.0 0.00 0.00 0.00 60 1000.6
20171022232628 73 180 1.0 7.0 0.00 0.00 0.00 60 1000.6
20171022232112 73 180 1.0 0.0 0.00 0.00 0.00 60 1000.6
20171022231627 74 180 5.0 5.0 0.00 0.00 0.00 60 1000.6
20171022231125 74 180 2.0 7.0 0.00 0.00 0.00 60 1000.6
20171022230610 74 180 1.0 0.0 0.00 0.00 0.00 60 1000.6
20171022225627 74 180 2.0 7.0 0.00 0.00 0.00 60 1000.6
20171022225112 74 180 0.0 2.0 0.00 0.00 0.00 60 1000.5
20171022224627 74 158 1.0 6.0 0.00 0.00 0.00 60 1000.6
20171022224126 74 158 8.0 10.0 0.00 0.00 0.00 60 1000.6
20171022223611 74 203 0.0 0.0 0.00 0.00 0.00 59 1000.5
20171022223126 74 158 0.0 0.0 0.00 0.00 0.00 59 1000.3
20171022222627 74 158 2.0 7.0 0.00 0.00 0.00 59 1000.3
20171022222112 74 180 5.0 8.0 0.00 0.00 0.00 60 1000.3
20171022221627 74 158 1.0 7.0 0.00 0.00 0.00 60 1000.3
20171022221125 74 158 2.0 10.0 0.00 0.00 0.00 60 1000.3
20171022220610 74 180 1.0 2.0 0.00 0.00 0.00 60 1000.3
20171022220125 75 180 3.0 5.0 0.00 0.00 0.00 60 1000.3
20171022215626 75 158 3.0 6.0 0.00 0.00 0.00 60 1000.3
20171022215110 75 180 5.0 5.0 0.00 0.00 0.00 60 1000.1
20171022214628 75 180 3.0 5.0 0.00 0.00 0.00 60 1000.2
20171022214126 75 180 0.0 3.0 0.00 0.00 0.00 60 1000.0
20171022213646 75 158 2.0 5.0 0.00 0.00 0.00 59 1000.2
20171022213610 75 158 2.0 5.0 0.00 0.00 0.00 59 1000.2
20171022212109 75 203 1.0 0.0 0.00 0.00 0.00 59 1000.3
20171022211625 75 180 5.0 12.0 0.00 0.00 0.00 59 1000.3
20171022211125 75 180 5.0 7.0 0.00 0.00 0.00 59 1000.3
20171022210611 75 180 2.0 3.0 0.00 0.00 0.00 59 1000.3
20171022210126 75 203 1.0 7.0 0.00 0.00 0.00 59 1000.4
20171022205625 76 180 5.0 6.0 0.00 0.00 0.00 58 1000.6
20171022205109 76 158 0.0 0.0 0.00 0.00 0.00 58 1000.6
20171022204625 76 158 0.0 0.0 0.00 0.00 0.00 58 1000.6
20171022204126 76 180 3.0 5.0 0.00 0.00 0.00 58 1000.6
20171022203611 76 158 1.0 6.0 0.00 0.00 0.00 57 1000.6
20171022203126 77 180 0.0 0.0 0.00 0.00 0.00 57 1000.6
20171022202628 77 180 0.0 3.0 0.00 0.00 0.00 57 1000.6
20171022202111 77 203 1.0 8.0 0.00 0.00 0.00 56 1000.6
20171022201125 78 158 6.0 10.0 0.00 0.00 0.00 56 1000.3
20171022200610 78 158 6.0 8.0 0.00 0.00 0.00 56 1000.3
20171022195635 78 180 5.0 9.0 0.00 0.00 0.00 55 1000.3
20171022195110 78 203 1.0 0.0 0.00 0.00 0.00 54 1000.4
20171022194625 79 180 3.0 7.0 0.00 0.00 0.00 54 1000.4
20171022194125 79 180 3.0 6.0 0.00 0.00 0.00 53 1000.6
20171022193611 80 180 5.0 8.0 0.00 0.00 0.00 53 1000.6
20171022192625 80 180 8.0 10.0 0.00 0.00 0.00 51 1000.6
20171022192110 81 180 3.0 3.0 0.00 0.00 0.00 51 1000.8
20171022191625 81 158 7.0 8.0 0.00 0.00 0.00 51 1000.8
20171022191125 81 180 1.0 7.0 0.00 0.00 0.00 51 1001.0
20171022190609 81 180 1.0 0.0 0.00 0.00 0.00 50 1001.0